[ hide orbit diagram ]
For accurate long-term ephemerides, please instead use our Horizons system.This orbit viewer was implemented using two-body methods, and hence should not be used for determining accurate long-term trajectories (over several years or decades) or planetary encounter circumstances.
Orbital Elements at Epoch 2459200.5 (2020-Dec-17.0) TDB
Reference: JPL 29 (heliocentric ecliptic J2000)
Element | Value | Uncertainty (1-sigma) | Units |
e | .1710976584951309 | 3.9755e-08 | |
a | 3.084110861431301 | 2.0365e-08 | au |
q | 2.556426714501004 | 1.257e-07 | au |
i | 13.32588326754427 | 5.1285e-06 | deg |
node | 76.27851989141206 | 1.9936e-05 | deg |
peri | 35.52870085034609 | 2.5502e-05 | deg |
M | 42.35943564523881 | 1.5133e-05 | deg |
tp | 2458967.722466195431 (2020-Apr-28.22246620) | 8.2514e-05 | TDB |
period | 1978.305680733588 5.42 | 1.9594e-05 5.365e-08 | d yr |
n | .1819738999417451 | 1.8024e-09 | deg/d |
Q | 3.611795008361598 | 2.3849e-08 | au |
|
| | Orbit Determination Parameters
Additional Information
|
[ show covariance matrix ]
Physical Parameter Table
Parameter |
Symbol |
Value |
Units |
Sigma |
Reference |
Notes |
absolute magnitude |
H |
14.35 |
|
n/a |
E2021B10 |
|
diameter |
diameter |
4.796 |
km |
0.145 |
urn:nasa:pds:neowise_diameters_albedos::2.0[mainbelt] (http://adsabs.harvard.edu/abs/2011ApJ...741...68M) |
|
geometric albedo |
albedo |
0.176 |
|
0.014 |
urn:nasa:pds:neowise_diameters_albedos::2.0[mainbelt] (http://adsabs.harvard.edu/abs/2011ApJ...741...68M) |
|
|
70043 (1999 CJ127) Discovered 1999-Feb-11 by LINEAR at Socorro |
Reference: 20031109/Numbers.arc | Last Updated: 2004-04-19 |
|
[ show close-approach data ]
Alternate Designations
1999 CJ127 = 2001 NT14 = 2001 OB110 = 2002 SU52 = 2002 UD70 |
|
|